Location: Roc des P�zouls
(43.9667°N, 3.5500°E)
Time: 02:56:05
(UTC+00:00)

Cosmos 1864 Rocket - Pass Details

Date: 14 November 2019
Orbit: 952 x 996 km, 82.9° (Epoch: 07 December)

Event Time Altitude Azimuth Distance (km) Brightness Sun altitude
Rises 06:00:27 0° 195° (SSW) 3,612 7.5 -7.3°
Reaches altitude 10° 06:02:57 10° 199° (SSW) 2,672 6.8 -6.8°
Maximum altitude 06:09:00 64° 280° (W) 1,053 4.5 -5.8°
Drops below altitude 10° 06:15:09 10° 2° (N) 2,706 6.7 -4.8°
Sets 06:17:42 0° 6° (N) 3,663 7.3 -4.3°
